カタログに戻る

THOR 7

運用中通信GEO
NORAD 40613·PAYLOAD·🇳🇴 Norway

打ち上げ Apr 26, 2015 から Guiana Space Centre

Loading…

TLE

最新Source: Space-Track

元期: Sep 14, 2026, 13:47 UTC

1 40613U 15022A   26257.57492769 -.00000016  00000-0  00000-0 0  9993
2 40613   0.0125 207.7342 0002577 324.4217  27.7205  1.00271435 41712

AllMySatでTHOR 7をリアルタイム追跡

Download on the App Store